Regional Weather Roundup
Issued by NWS

Home | Current Version | Previous Version | Text Only | Print | Product List | Glossary On
Versions: 1 2 3 4 5 6 7 8 9 10 11 12 13 14 15 16 17 18 19 20 21 22 23 24 25 26 27 28 29 30 31 32 33 34 35 36 37 38 39 40 41 42 43 44 45 46 47 48 49 50
000
ASCA44 KEWX 040820
RWRMX

LATIN AMERICA AND CARIBBEAN REGIONAL WEATHER ROUNDUP
NATIONAL WEATHER SERVICE AUSTIN/SAN ANTONIO TX
200 AM CST WED MAR 04 2015

NOTE: "FAIR" INDICATED FEW OR NO CLOUDS BELOW 12,000 FEET WITH NO
SIGNIFICANT WEATHER AND/OR OBSTRUCTIONS TO VISIBILITY.

BAJA CALIFORNIA

CITY           SKY/WX    TMP DP  RH WIND       PRES   REMARKS
TIJUANA        CLEAR     52  43  71 CALM      29.98

NORTHWESTERN MEXICO

CITY           SKY/WX    TMP DP  RH WIND       PRES   REMARKS
HERMOSILLO     MOCLDY    57  50  77 CALM      29.90S

NORTHEASTERN MEXICO

CITY           SKY/WX    TMP DP  RH WIND       PRES   REMARKS
MONTERREY      PTCLDY    59  57  94 W7        29.77F
REYNOSA        CLOUDY    68  63  83 S7        29.79S
CD. VICTORIA   PTCLDY    68  66  94 S15G26    29.78F

WESTERN MEXICO

CITY           SKY/WX    TMP DP  RH WIND       PRES   REMARKS
AGUASCALIENTES CLEAR     50  19  29 S9        30.15F WCI  46
DEL BAJIO      CLEAR     54  32  43 E2        30.21S
GUADALAJARA    CLEAR     54  34  47 CALM      30.13S
MAZATLAN       PTCLDY    63  61  94 NE8       29.89F FOG
P. VALLARTA    MOCLDY    66  54  63 NE5       29.91S

CENTRAL MEXICO

CITY           SKY/WX    TMP DP  RH WIND       PRES   REMARKS
MEXICO CITY    CLEAR     61  39  44 S3        30.23F
MORELIA        CLEAR     54  41  62 CALM      30.15S
QUERETARO      CLEAR     52  34  50 CALM      30.18F
S. LUIS POTOSI CLEAR     59  21  23 NE5       30.09
TOLUCA         CLEAR     43  36  75 E5        30.32F WCI  40

SOUTHERN MEXICO

CITY           SKY/WX    TMP DP  RH WIND       PRES   REMARKS
ACAPULCO       PTCLDY    72  66  83 NE3       29.85S

YUCATAN PENINSULA

CITY           SKY/WX    TMP DP  RH WIND       PRES   REMARKS
CANCUN         PTCLDY    77  70  78 SE10      29.97F
COZUMEL        PTCLDY    70  70 100 SE5       29.97F
MERIDA         CLEAR     72  68  88 SE9       29.93F
TAPACHULA      CLEAR     77  73  88 CALM      29.85F

CENTRAL AMERICA

CITY           SKY/WX    TMP DP  RH WIND       PRES   REMARKS

CARIBBEAN

CITY           SKY/WX    TMP DP  RH WIND       PRES   REMARKS
ARUBA          PTCLDY    79  72  78 E16       29.86S
CURACAO        PTCLDY    77  73  88 E14       29.89S
KINGSTON       MOCLDY    77  70  78 N6        29.92F
NASSAU         PTCLDY    73  66  78 SE6       30.12F
SAN JUAN       MOCLDY    72  66  83 E9        30.03S
SANTO DOMINGO  PTCLDY    68  66  94 NE5       30.00F
ST. MAARTEN    MOCLDY    75  66  73 E15G28    30.00S

$$



USA.gov is the U.S. government's official web portal to all federal, state and local government web resources and services.